| time (UTC) | temp C | wind direction | speed KPH | gust KPH | rain 1hr cm | rain 24hr cm | rain mn cm | humidity % | barometer mb |
| 20260510113333 | 18 | 33 | 11.3 | 30.6 | 0.00 | 0.00 | 0.00 | 56 | 1013.3 |
| 20260510112855 | 18 | 69 | 9.7 | 25.7 | 0.00 | 0.00 | 0.00 | 57 | 1013.4 |
| 20260510112345 | 18 | 98 | 3.2 | 22.5 | 0.00 | 0.00 | 0.00 | 61 | 1013.4 |
| 20260510111847 | 17 | 266 | 6.4 | 24.1 | 0.00 | 0.00 | 0.00 | 59 | 1013.6 |
| 20260510111320 | 17 | 350 | 12.9 | 27.4 | 0.00 | 0.00 | 0.00 | 60 | 1013.7 |
| 20260510110827 | 17 | 83 | 9.7 | 19.3 | 0.00 | 0.00 | 0.00 | 58 | 1013.8 |
| 20260510110322 | 17 | 27 | 8.0 | 22.5 | 0.00 | 0.00 | 0.00 | 57 | 1013.8 |
| 20260510105826 | 17 | 40 | 9.7 | 22.5 | 0.00 | 0.00 | 0.00 | 57 | 1013.8 |
| 20260510105339 | 17 | 40 | 9.7 | 25.7 | 0.00 | 0.00 | 0.00 | 57 | 1013.8 |
| 20260510104834 | 17 | 42 | 14.5 | 25.7 | 0.00 | 0.00 | 0.00 | 56 | 1013.9 |
| 20260510104329 | 17 | 294 | 12.9 | 20.9 | 0.00 | 0.00 | 0.00 | 57 | 1013.9 |
| 20260510103820 | 17 | 151 | 9.7 | 20.9 | 0.00 | 0.00 | 0.00 | 57 | 1013.9 |
| 20260510103340 | 17 | 354 | 12.9 | 20.9 | 0.00 | 0.00 | 0.00 | 57 | 1013.9 |
| 20260510102835 | 17 | 45 | 11.3 | 19.3 | 0.00 | 0.00 | 0.00 | 57 | 1014.0 |
| 20260510102321 | 17 | 9 | 12.9 | 22.5 | 0.00 | 0.00 | 0.00 | 58 | 1014.1 |
| 20260510101822 | 17 | 10 | 11.3 | 29.0 | 0.00 | 0.00 | 0.00 | 57 | 1014.1 |
| 20260510101317 | 17 | 335 | 12.9 | 29.0 | 0.00 | 0.00 | 0.00 | 57 | 1014.2 |
| 20260510100859 | 17 | 231 | 8.0 | 22.5 | 0.00 | 0.00 | 0.00 | 58 | 1014.2 |
| 20260510100331 | 16 | 47 | 9.7 | 25.7 | 0.00 | 0.00 | 0.00 | 57 | 1014.3 |
| 20260510095845 | 17 | 19 | 9.7 | 25.7 | 0.00 | 0.00 | 0.00 | 56 | 1014.5 |
| 20260510095330 | 16 | 44 | 9.7 | 20.9 | 0.00 | 0.00 | 0.00 | 57 | 1014.4 |
| 20260510094831 | 16 | 19 | 9.7 | 25.7 | 0.00 | 0.00 | 0.00 | 58 | 1014.4 |
| 20260510094325 | 16 | 58 | 12.9 | 30.6 | 0.00 | 0.00 | 0.00 | 57 | 1014.5 |
| 20260510093838 | 16 | 32 | 17.7 | 33.8 | 0.00 | 0.00 | 0.00 | 57 | 1014.4 |
| 20260510093338 | 16 | 37 | 11.3 | 35.4 | 0.00 | 0.00 | 0.00 | 58 | 1014.5 |
| 20260510092833 | 16 | 19 | 12.9 | 25.7 | 0.00 | 0.00 | 0.00 | 57 | 1014.6 |
| 20260510092329 | 16 | 156 | 11.3 | 29.0 | 0.00 | 0.00 | 0.00 | 58 | 1014.6 |
| 20260510091824 | 16 | 42 | 14.5 | 29.0 | 0.00 | 0.00 | 0.00 | 59 | 1014.6 |
| 20260510091329 | 16 | 49 | 8.0 | 24.1 | 0.00 | 0.00 | 0.00 | 63 | 1014.6 |
| 20260510090834 | 16 | 25 | 9.7 | 27.4 | 0.00 | 0.00 | 0.00 | 63 | 1014.5 |
| 20260510090335 | 16 | 8 | 8.0 | 27.4 | 0.00 | 0.00 | 0.00 | 64 | 1014.6 |
| 20260510085841 | 16 | 66 | 8.0 | 24.1 | 0.00 | 0.00 | 0.00 | 65 | 1014.6 |
| 20260510085332 | 16 | 10 | 12.9 | 24.1 | 0.00 | 0.00 | 0.00 | 64 | 1014.7 |
| 20260510084849 | 16 | 22 | 11.3 | 22.5 | 0.00 | 0.00 | 0.00 | 65 | 1014.7 |
| 20260510084350 | 15 | 27 | 14.5 | 22.5 | 0.00 | 0.00 | 0.00 | 66 | 1014.7 |
| 20260510083836 | 15 | 335 | 9.7 | 25.7 | 0.00 | 0.00 | 0.00 | 66 | 1014.7 |
| 20260510083318 | 15 | 40 | 14.5 | 27.4 | 0.00 | 0.00 | 0.00 | 66 | 1014.8 |
| 20260510082840 | 15 | 28 | 11.3 | 27.4 | 0.00 | 0.00 | 0.00 | 66 | 1014.8 |
| 20260510082325 | 15 | 342 | 8.0 | 25.7 | 0.00 | 0.00 | 0.00 | 67 | 1014.9 |
| 20260510081825 | 15 | 25 | 11.3 | 30.6 | 0.00 | 0.00 | 0.00 | 67 | 1014.9 |
| 20260510081319 | 15 | 82 | 11.3 | 30.6 | 0.00 | 0.00 | 0.00 | 68 | 1014.9 |
| 20260510080826 | 15 | 73 | 14.5 | 24.1 | 0.00 | 0.00 | 0.00 | 67 | 1014.9 |
| 20260510080320 | 15 | 24 | 11.3 | 24.1 | 0.00 | 0.00 | 0.00 | 68 | 1015.0 |
| 20260510075832 | 15 | 30 | 9.7 | 25.7 | 0.00 | 0.00 | 0.00 | 69 | 1015.0 |
| 20260510075347 | 15 | 1 | 11.3 | 19.3 | 0.00 | 0.00 | 0.00 | 70 | 1015.0 |
| 20260510074820 | 14 | 19 | 9.7 | 27.4 | 0.00 | 0.00 | 0.00 | 70 | 1015.1 |
| 20260510074322 | 14 | 8 | 16.1 | 27.4 | 0.00 | 0.00 | 0.00 | 69 | 1015.1 |
| 20260510073827 | 14 | 38 | 12.9 | 22.5 | 0.00 | 0.00 | 0.00 | 69 | 1015.1 |
| 20260510073328 | 14 | 21 | 8.0 | 25.7 | 0.00 | 0.00 | 0.00 | 72 | 1015.2 |
| 20260510072822 | 14 | 22 | 11.3 | 25.7 | 0.00 | 0.00 | 0.00 | 72 | 1015.2 |
| 20260510072337 | 14 | 308 | 8.0 | 20.9 | 0.00 | 0.00 | 0.00 | 73 | 1015.2 |
| 20260510071831 | 13 | 6 | 9.7 | 19.3 | 0.00 | 0.00 | 0.00 | 74 | 1015.2 |
| 20260510071332 | 13 | 39 | 8.0 | 20.9 | 0.00 | 0.00 | 0.00 | 75 | 1015.3 |
| 20260510070846 | 13 | 355 | 11.3 | 22.5 | 0.00 | 0.00 | 0.00 | 76 | 1015.3 |
| 20260510070318 | 13 | 103 | 12.9 | 22.5 | 0.00 | 0.00 | 0.00 | 77 | 1015.3 |
| 20260510065831 | 13 | 43 | 14.5 | 25.7 | 0.00 | 0.00 | 0.00 | 77 | 1015.3 |
| 20260510065319 | 13 | 35 | 14.5 | 25.7 | 0.00 | 0.00 | 0.00 | 78 | 1015.3 |
| 20260510064818 | 12 | 30 | 12.9 | 22.5 | 0.00 | 0.00 | 0.00 | 78 | 1015.3 |
| 20260510064400 | 12 | 30 | 9.7 | 22.5 | 0.00 | 0.00 | 0.00 | 79 | 1015.3 |
| 20260510063827 | 12 | 49 | 12.9 | 24.1 | 0.00 | 0.00 | 0.00 | 79 | 1015.3 |
| 20260510063320 | 12 | 13 | 11.3 | 24.1 | 0.00 | 0.00 | 0.00 | 80 | 1015.3 |
| 20260510062839 | 12 | 349 | 14.5 | 25.7 | 0.00 | 0.00 | 0.00 | 80 | 1015.3 |
| 20260510062329 | 12 | 43 | 12.9 | 29.0 | 0.00 | 0.00 | 0.00 | 80 | 1015.4 |
| 20260510061823 | 12 | 5 | 16.1 | 25.7 | 0.00 | 0.00 | 0.00 | 80 | 1015.4 |
| 20260510061324 | 12 | 90 | 16.1 | 25.7 | 0.00 | 0.00 | 0.00 | 80 | 1015.4 |
| 20260510060840 | 12 | 19 | 9.7 | 27.4 | 0.00 | 0.00 | 0.00 | 80 | 1015.4 |
| 20260510060334 | 12 | 43 | 8.0 | 27.4 | 0.00 | 0.00 | 0.00 | 81 | 1015.5 |
| 20260510055827 | 12 | 360 | 8.0 | 14.5 | 0.00 | 0.00 | 0.00 | 83 | 1015.4 |
| 20260510055341 | 12 | 41 | 3.2 | 14.5 | 0.00 | 0.00 | 0.00 | 84 | 1015.5 |
| 20260510054816 | 11 | 56 | 4.8 | 12.9 | 0.00 | 0.00 | 0.00 | 84 | 1015.5 |
| 20260510054332 | 11 | 33 | 4.8 | 12.9 | 0.00 | 0.00 | 0.00 | 85 | 1015.5 |
| 20260510053823 | 11 | 40 | 4.8 | 9.7 | 0.00 | 0.00 | 0.00 | 85 | 1015.4 |
| 20260510053343 | 11 | 321 | 4.8 | 12.9 | 0.00 | 0.00 | 0.00 | 85 | 1015.5 |
| 20260510052817 | 11 | 13 | 8.0 | 12.9 | 0.00 | 0.00 | 0.00 | 85 | 1015.5 |
| 20260510052328 | 11 | 51 | 4.8 | 12.9 | 0.00 | 0.00 | 0.00 | 85 | 1015.4 |
| 20260510051822 | 11 | 44 | 6.4 | 20.9 | 0.00 | 0.00 | 0.00 | 84 | 1015.5 |
| 20260510051325 | 11 | 103 | 9.7 | 20.9 | 0.00 | 0.00 | 0.00 | 84 | 1015.4 |
| 20260510050831 | 11 | 5 | 8.0 | 20.9 | 0.00 | 0.00 | 0.00 | 84 | 1015.4 |
| 20260510050332 | 11 | 13 | 11.3 | 22.5 | 0.00 | 0.00 | 0.00 | 85 | 1015.3 |
| 20260510045840 | 11 | 14 | 6.4 | 16.1 | 0.00 | 0.00 | 0.00 | 85 | 1015.3 |
| 20260510045327 | 11 | 335 | 4.8 | 12.9 | 0.00 | 0.00 | 0.00 | 86 | 1015.3 |
| 20260510044823 | 11 | 40 | 6.4 | 12.9 | 0.00 | 0.00 | 0.00 | 86 | 1015.3 |
| 20260510044325 | 11 | 65 | 6.4 | 14.5 | 0.00 | 0.00 | 0.00 | 86 | 1015.3 |
| 20260510043840 | 11 | 30 | 4.8 | 14.5 | 0.00 | 0.00 | 0.00 | 86 | 1015.2 |
| 20260510043335 | 11 | 30 | 6.4 | 14.5 | 0.00 | 0.00 | 0.00 | 86 | 1015.2 |
| 20260510042826 | 11 | 8 | 8.0 | 14.5 | 0.00 | 0.00 | 0.00 | 86 | 1015.2 |
| 20260510042322 | 11 | 40 | 4.8 | 9.7 | 0.00 | 0.00 | 0.00 | 86 | 1015.2 |
| 20260510041816 | 11 | 30 | 6.4 | 9.7 | 0.00 | 0.00 | 0.00 | 86 | 1015.2 |
| 20260510041317 | 11 | 1 | 3.2 | 9.7 | 0.00 | 0.00 | 0.00 | 86 | 1015.2 |
| 20260510040826 | 11 | 49 | 4.8 | 9.7 | 0.00 | 0.00 | 0.00 | 86 | 1015.3 |
| 20260510040318 | 11 | 49 | 4.8 | 8.0 | 0.00 | 0.00 | 0.00 | 86 | 1015.3 |
| 20260510035831 | 11 | 348 | 1.6 | 9.7 | 0.00 | 0.00 | 0.00 | 86 | 1015.3 |
| 20260510035318 | 11 | 50 | 4.8 | 11.3 | 0.00 | 0.00 | 0.00 | 85 | 1015.3 |
| 20260510034841 | 11 | 62 | 4.8 | 11.3 | 0.00 | 0.00 | 0.00 | 85 | 1015.4 |
| 20260510034315 | 11 | 318 | 6.4 | 9.7 | 0.00 | 0.00 | 0.00 | 86 | 1015.4 |
| 20260510033831 | 11 | 37 | 4.8 | 8.0 | 0.00 | 0.00 | 0.00 | 86 | 1015.3 |
| 20260510033342 | 11 | 41 | 4.8 | 8.0 | 0.00 | 0.00 | 0.00 | 86 | 1015.3 |
| 20260510032840 | 11 | 33 | 4.8 | 9.7 | 0.00 | 0.00 | 0.00 | 86 | 1015.3 |
| 20260510032354 | 11 | 27 | 3.2 | 9.7 | 0.00 | 0.00 | 0.00 | 86 | 1015.4 |
| 20260510031834 | 11 | 73 | 1.6 | 8.0 | 0.00 | 0.00 | 0.00 | 86 | 1015.4 |
| 20260510031357 | 11 | 56 | 3.2 | 8.0 | 0.00 | 0.00 | 0.00 | 86 | 1015.4 |
| 20260510030821 | 11 | 72 | 3.2 | 6.4 | 0.00 | 0.00 | 0.00 | 86 | 1015.4 |
| 20260510030316 | 11 | 60 | 3.2 | 6.4 | 0.00 | 0.00 | 0.00 | 86 | 1015.4 |
| 20260510025829 | 11 | 46 | 1.6 | 6.4 | 0.00 | 0.00 | 0.00 | 86 | 1015.4 |
| 20260510025325 | 11 | 18 | 3.2 | 14.5 | 0.00 | 0.00 | 0.00 | 85 | 1015.4 |
| 20260510024820 | 11 | 43 | 8.0 | 14.5 | 0.00 | 0.00 | 0.00 | 86 | 1015.3 |
| 20260510024339 | 11 | 46 | 4.8 | 9.7 | 0.00 | 0.00 | 0.00 | 85 | 1015.4 |
| 20260510023828 | 11 | 10 | 3.2 | 11.3 | 0.00 | 0.00 | 0.00 | 85 | 1015.4 |
| 20260510023347 | 11 | 53 | 4.8 | 12.9 | 0.00 | 0.00 | 0.00 | 85 | 1015.4 |
| 20260510022822 | 11 | 56 | 4.8 | 8.0 | 0.00 | 0.00 | 0.00 | 85 | 1015.5 |
| 20260510022355 | 11 | 19 | 3.2 | 8.0 | 0.00 | 0.00 | 0.00 | 85 | 1015.5 |
| 20260510021832 | 11 | 47 | 3.2 | 8.0 | 0.00 | 0.00 | 0.00 | 85 | 1015.6 |
| 20260510021328 | 11 | 27 | 4.8 | 8.0 | 0.00 | 0.00 | 0.00 | 85 | 1015.6 |
| 20260510020839 | 12 | 60 | 3.2 | 11.3 | 0.00 | 0.00 | 0.00 | 84 | 1015.6 |
| 20260510020320 | 12 | 16 | 4.8 | 11.3 | 0.00 | 0.00 | 0.00 | 84 | 1015.6 |
| 20260510015826 | 12 | 72 | 1.6 | 12.9 | 0.00 | 0.00 | 0.00 | 84 | 1015.6 |
| 20260510015321 | 12 | 339 | 4.8 | 12.9 | 0.00 | 0.00 | 0.00 | 84 | 1015.6 |
| 20260510014836 | 12 | 48 | 4.8 | 8.0 | 0.00 | 0.00 | 0.00 | 84 | 1015.5 |
| 20260510014317 | 12 | 8 | 3.2 | 8.0 | 0.00 | 0.00 | 0.00 | 84 | 1015.6 |
| 20260510013832 | 12 | 58 | 3.2 | 9.7 | 0.00 | 0.00 | 0.00 | 83 | 1015.6 |
| 20260510013324 | 12 | 11 | 4.8 | 9.7 | 0.00 | 0.00 | 0.00 | 83 | 1015.6 |
| 20260510012817 | 12 | 1 | 4.8 | 9.7 | 0.00 | 0.00 | 0.00 | 83 | 1015.6 |
| 20260510012333 | 12 | 30 | 4.8 | 9.7 | 0.00 | 0.00 | 0.00 | 83 | 1015.6 |
| 20260510011834 | 12 | 360 | 3.2 | 9.7 | 0.00 | 0.00 | 0.00 | 82 | 1015.7 |
| 20260510011327 | 12 | 37 | 4.8 | 11.3 | 0.00 | 0.00 | 0.00 | 82 | 1015.8 |
| 20260510010841 | 12 | 42 | 8.0 | 11.3 | 0.00 | 0.00 | 0.00 | 82 | 1015.8 |
| 20260510010343 | 12 | 48 | 3.2 | 9.7 | 0.00 | 0.00 | 0.00 | 82 | 1015.8 |
| 20260510005827 | 12 | 46 | 3.2 | 8.0 | 0.00 | 0.00 | 0.00 | 82 | 1015.8 |
| 20260510005322 | 12 | 33 | 1.6 | 6.4 | 0.00 | 0.00 | 0.00 | 81 | 1015.7 |
| 20260510004837 | 12 | 349 | 3.2 | 6.4 | 0.00 | 0.00 | 0.00 | 81 | 1015.8 |
| 20260510004335 | 12 | 42 | 1.6 | 4.8 | 0.00 | 0.00 | 0.00 | 81 | 1015.9 |
| 20260510003843 | 12 | 56 | 1.6 | 8.0 | 0.00 | 0.00 | 0.00 | 81 | 1015.9 |
| 20260510003325 | 12 | 333 | 4.8 | 8.0 | 0.00 | 0.00 | 0.00 | 81 | 1016.0 |
| 20260510002821 | 12 | 345 | 1.6 | 6.4 | 0.00 | 0.00 | 0.00 | 80 | 1016.0 |
| 20260510002315 | 12 | 359 | 1.6 | 4.8 | 0.00 | 0.00 | 0.00 | 80 | 1016.0 |
| 20260510001838 | 12 | 58 | 0.0 | 4.8 | 0.00 | 0.00 | 0.00 | 79 | 1016.0 |
| 20260510001334 | 12 | 56 | 1.6 | 4.8 | 0.00 | 0.00 | 0.00 | 79 | 1016.0 |
| 20260510000818 | 12 | 344 | 1.6 | 4.8 | 0.00 | 0.00 | 0.00 | 79 | 1016.1 |
| 20260510000320 | 12 | 41 | 3.2 | 4.8 | 0.00 | 0.00 | 0.00 | 78 | 1016.1 |
| 20260509235834 | 12 | 359 | 1.6 | 4.8 | 0.00 | 0.00 | 0.00 | 77 | 1016.2 |
| 20260509235321 | 12 | 3 | 1.6 | 6.4 | 0.00 | 0.00 | 0.00 | 77 | 1016.3 |
| 20260509234816 | 12 | 19 | 3.2 | 9.7 | 0.00 | 0.00 | 0.00 | 76 | 1016.2 |
| 20260509234319 | 13 | 342 | 4.8 | 9.7 | 0.00 | 0.00 | 0.00 | 76 | 1016.2 |
| 20260509233833 | 13 | 5 | 4.8 | 9.7 | 0.00 | 0.00 | 0.00 | 75 | 1016.3 |
| 20260509233328 | 13 | 22 | 1.6 | 12.9 | 0.00 | 0.00 | 0.00 | 75 | 1016.3 |
| 20260509232823 | 13 | 328 | 4.8 | 12.9 | 0.00 | 0.00 | 0.00 | 73 | 1016.3 |
| 20260509232316 | 13 | 56 | 1.6 | 8.0 | 0.00 | 0.00 | 0.00 | 73 | 1016.3 |
| 20260509231833 | 13 | 56 | 3.2 | 8.0 | 0.00 | 0.00 | 0.00 | 72 | 1016.3 |
| 20260509231326 | 13 | 43 | 3.2 | 9.7 | 0.00 | 0.00 | 0.00 | 72 | 1016.3 |
| 20260509230823 | 13 | 25 | 4.8 | 9.7 | 0.00 | 0.00 | 0.00 | 71 | 1016.3 |
| 20260509230317 | 13 | 354 | 3.2 | 11.3 | 0.00 | 0.00 | 0.00 | 70 | 1016.3 |
| 20260509225826 | 13 | 24 | 4.8 | 11.3 | 0.00 | 0.00 | 0.00 | 70 | 1016.3 |
| 20260509225334 | 13 | 30 | 3.2 | 11.3 | 0.00 | 0.00 | 0.00 | 69 | 1016.2 |
| 20260509224837 | 13 | 355 | 4.8 | 11.3 | 0.00 | 0.00 | 0.00 | 68 | 1016.2 |
| 20260509224331 | 13 | 352 | 3.2 | 8.0 | 0.00 | 0.00 | 0.00 | 68 | 1016.2 |
| 20260509223826 | 14 | 124 | 3.2 | 11.3 | 0.00 | 0.00 | 0.00 | 67 | 1016.3 |
| 20260509223318 | 14 | 41 | 4.8 | 11.3 | 0.00 | 0.00 | 0.00 | 67 | 1016.3 |
| 20260509222838 | 14 | 19 | 3.2 | 12.9 | 0.00 | 0.00 | 0.00 | 67 | 1016.2 |
| 20260509222322 | 14 | 15 | 3.2 | 6.4 | 0.00 | 0.00 | 0.00 | 67 | 1016.3 |
| 20260509221843 | 14 | 47 | 3.2 | 9.7 | 0.00 | 0.00 | 0.00 | 67 | 1016.4 |
| 20260509221324 | 14 | 24 | 1.6 | 4.8 | 0.00 | 0.00 | 0.00 | 67 | 1016.4 |
| 20260509220859 | 14 | 72 | 1.6 | 9.7 | 0.00 | 0.00 | 0.00 | 66 | 1016.4 |
| 20260509220329 | 15 | 128 | 3.2 | 9.7 | 0.00 | 0.00 | 0.00 | 66 | 1016.4 |
| 20260509215817 | 15 | 42 | 6.4 | 12.9 | 0.00 | 0.00 | 0.00 | 66 | 1016.4 |
| 20260509215332 | 15 | 11 | 6.4 | 12.9 | 0.00 | 0.00 | 0.00 | 66 | 1016.3 |
| 20260509214826 | 15 | 35 | 3.2 | 11.3 | 0.00 | 0.00 | 0.00 | 66 | 1016.2 |
| 20260509214320 | 15 | 30 | 4.8 | 11.3 | 0.00 | 0.00 | 0.00 | 65 | 1016.2 |
| 20260509213832 | 15 | 48 | 3.2 | 8.0 | 0.00 | 0.00 | 0.00 | 66 | 1016.3 |
| 20260509213326 | 15 | 46 | 3.2 | 9.7 | 0.00 | 0.00 | 0.00 | 65 | 1016.4 |
| 20260509212828 | 15 | 25 | 6.4 | 9.7 | 0.00 | 0.00 | 0.00 | 65 | 1016.3 |
| 20260509212343 | 15 | 46 | 4.8 | 9.7 | 0.00 | 0.00 | 0.00 | 66 | 1016.2 |
| 20260509211902 | 15 | 37 | 1.6 | 8.0 | 0.00 | 0.00 | 0.00 | 66 | 1016.2 |
| 20260509211355 | 15 | 346 | 0.0 | 4.8 | 0.00 | 0.00 | 0.00 | 65 | 1016.2 |
| 20260509210825 | 15 | 53 | 3.2 | 9.7 | 0.00 | 0.00 | 0.00 | 65 | 1016.2 |
| 20260509210318 | 15 | 58 | 1.6 | 9.7 | 0.00 | 0.00 | 0.00 | 65 | 1016.1 |
| 20260509205832 | 15 | 53 | 4.8 | 8.0 | 0.00 | 0.00 | 0.00 | 64 | 1016.1 |
| 20260509205322 | 15 | 354 | 1.6 | 8.0 | 0.00 | 0.00 | 0.00 | 64 | 1016.1 |
| 20260509204822 | 15 | 21 | 3.2 | 9.7 | 0.00 | 0.00 | 0.00 | 63 | 1016.1 |
| 20260509204317 | 15 | 46 | 3.2 | 9.7 | 0.00 | 0.00 | 0.00 | 63 | 1016.1 |
| 20260509203828 | 16 | 60 | 3.2 | 9.7 | 0.00 | 0.00 | 0.00 | 63 | 1016.1 |
| 20260509203322 | 16 | 25 | 3.2 | 9.7 | 0.00 | 0.00 | 0.00 | 63 | 1016.1 |
| 20260509202825 | 16 | 1 | 3.2 | 11.3 | 0.00 | 0.00 | 0.00 | 62 | 1016.1 |
| 20260509202333 | 16 | 35 | 6.4 | 11.3 | 0.00 | 0.00 | 0.00 | 62 | 1016.2 |
| 20260509201834 | 16 | 40 | 1.6 | 11.3 | 0.00 | 0.00 | 0.00 | 61 | 1016.2 |
| 20260509201357 | 16 | 344 | 3.2 | 11.3 | 0.00 | 0.00 | 0.00 | 61 | 1016.2 |
| 20260509200824 | 16 | 24 | 4.8 | 11.3 | 0.00 | 0.00 | 0.00 | 60 | 1016.2 |
| 20260509200327 | 16 | 50 | 4.8 | 11.3 | 0.00 | 0.00 | 0.00 | 61 | 1016.1 |
| 20260509195829 | 16 | 346 | 3.2 | 8.0 | 0.00 | 0.00 | 0.00 | 61 | 1016.1 |
| 20260509195344 | 16 | 63 | 4.8 | 8.0 | 0.00 | 0.00 | 0.00 | 61 | 1016.0 |
| 20260509194816 | 16 | 61 | 3.2 | 6.4 | 0.00 | 0.00 | 0.00 | 61 | 1016.0 |
| 20260509194318 | 16 | 359 | 1.6 | 9.7 | 0.00 | 0.00 | 0.00 | 61 | 1015.8 |
| 20260509193833 | 16 | 33 | 3.2 | 9.7 | 0.00 | 0.00 | 0.00 | 61 | 1015.8 |
| 20260509193348 | 17 | 48 | 1.6 | 6.4 | 0.00 | 0.00 | 0.00 | 61 | 1015.8 |
| 20260509192849 | 17 | 336 | 3.2 | 6.4 | 0.00 | 0.00 | 0.00 | 61 | 1015.9 |
| 20260509192344 | 17 | 53 | 1.6 | 6.4 | 0.00 | 0.00 | 0.00 | 60 | 1016.0 |
| 20260509191842 | 17 | 48 | 1.6 | 6.4 | 0.00 | 0.00 | 0.00 | 59 | 1016.0 |
| 20260509191404 | 17 | 360 | 3.2 | 6.4 | 0.00 | 0.00 | 0.00 | 59 | 1015.9 |
| 20260509190828 | 17 | 328 | 1.6 | 8.0 | 0.00 | 0.00 | 0.00 | 58 | 1015.8 |
| 20260509190319 | 17 | 57 | 3.2 | 8.0 | 0.00 | 0.00 | 0.00 | 58 | 1015.9 |
| 20260509185827 | 17 | 352 | 3.2 | 8.0 | 0.00 | 0.00 | 0.00 | 57 | 1015.9 |
| 20260509185321 | 18 | 10 | 3.2 | 11.3 | 0.00 | 0.00 | 0.00 | 57 | 1015.8 |
| 20260509184836 | 18 | 355 | 4.8 | 12.9 | 0.00 | 0.00 | 0.00 | 56 | 1015.8 |
| 20260509184336 | 18 | 333 | 4.8 | 12.9 | 0.00 | 0.00 | 0.00 | 55 | 1015.8 |
| 20260509183824 | 18 | 341 | 1.6 | 11.3 | 0.00 | 0.00 | 0.00 | 54 | 1015.8 |
| 20260509183357 | 18 | 347 | 4.8 | 11.3 | 0.00 | 0.00 | 0.00 | 53 | 1015.8 |
| 20260509182836 | 19 | 348 | 3.2 | 11.3 | 0.00 | 0.00 | 0.00 | 53 | 1015.7 |
| 20260509182325 | 19 | 349 | 6.4 | 14.5 | 0.00 | 0.00 | 0.00 | 52 | 1015.7 |
| 20260509181826 | 19 | 357 | 9.7 | 14.5 | 0.00 | 0.00 | 0.00 | 52 | 1015.6 |
| 20260509181341 | 19 | 345 | 1.6 | 14.5 | 0.00 | 0.00 | 0.00 | 53 | 1015.7 |
| 20260509180816 | 19 | 33 | 3.2 | 11.3 | 0.00 | 0.00 | 0.00 | 54 | 1015.6 |
| 20260509180338 | 19 | 316 | 3.2 | 14.5 | 0.00 | 0.00 | 0.00 | 53 | 1015.5 |
| 20260509175825 | 19 | 13 | 6.4 | 14.5 | 0.00 | 0.00 | 0.00 | 53 | 1015.6 |
| 20260509175340 | 19 | 317 | 6.4 | 14.5 | 0.00 | 0.00 | 0.00 | 53 | 1015.5 |
| 20260509174834 | 19 | 311 | 4.8 | 16.1 | 0.00 | 0.00 | 0.00 | 52 | 1015.4 |
| 20260509174336 | 20 | 341 | 8.0 | 19.3 | 0.00 | 0.00 | 0.00 | 52 | 1015.3 |
| 20260509173822 | 20 | 251 | 4.8 | 14.5 | 0.00 | 0.00 | 0.00 | 52 | 1015.4 |
| 20260509173316 | 20 | 24 | 4.8 | 20.9 | 0.00 | 0.00 | 0.00 | 52 | 1015.4 |
| 20260509172817 | 20 | 1 | 6.4 | 19.3 | 0.00 | 0.00 | 0.00 | 51 | 1015.3 |
| 20260509172326 | 20 | 336 | 6.4 | 16.1 | 0.00 | 0.00 | 0.00 | 51 | 1015.3 |
| 20260509171828 | 20 | 311 | 4.8 | 17.7 | 0.00 | 0.00 | 0.00 | 51 | 1015.3 |
| 20260509171324 | 20 | 6 | 11.3 | 17.7 | 0.00 | 0.00 | 0.00 | 50 | 1015.3 |
| 20260509170819 | 20 | 5 | 9.7 | 16.1 | 0.00 | 0.00 | 0.00 | 50 | 1015.3 |
| 20260509170342 | 21 | 345 | 8.0 | 14.5 | 0.00 | 0.00 | 0.00 | 49 | 1015.4 |
| 20260509165828 | 21 | 339 | 8.0 | 14.5 | 0.00 | 0.00 | 0.00 | 49 | 1015.4 |
| 20260509165316 | 21 | 19 | 8.0 | 14.5 | 0.00 | 0.00 | 0.00 | 49 | 1015.4 |
| 20260509164817 | 21 | 316 | 6.4 | 16.1 | 0.00 | 0.00 | 0.00 | 48 | 1015.3 |
| 20260509164341 | 21 | 352 | 9.7 | 17.7 | 0.00 | 0.00 | 0.00 | 48 | 1015.4 |
| 20260509163846 | 21 | 333 | 8.0 | 14.5 | 0.00 | 0.00 | 0.00 | 47 | 1015.4 |
| 20260509163326 | 21 | 33 | 8.0 | 12.9 | 0.00 | 0.00 | 0.00 | 47 | 1015.5 |
| 20260509162820 | 21 | 352 | 1.6 | 12.9 | 0.00 | 0.00 | 0.00 | 46 | 1015.4 |
| 20260509162316 | 21 | 353 | 3.2 | 8.0 | 0.00 | 0.00 | 0.00 | 45 | 1015.4 |
| 20260509161840 | 21 | 32 | 1.6 | 9.7 | 0.00 | 0.00 | 0.00 | 46 | 1015.5 |
| 20260509161352 | 21 | 304 | 4.8 | 9.7 | 0.00 | 0.00 | 0.00 | 46 | 1015.5 |
| 20260509160823 | 21 | 342 | 0.0 | 9.7 | 0.00 | 0.00 | 0.00 | 47 | 1015.5 |
| 20260509160335 | 20 | 333 | 4.8 | 12.9 | 0.00 | 0.00 | 0.00 | 47 | 1015.5 |
| 20260509155825 | 20 | 67 | 4.8 | 12.9 | 0.00 | 0.00 | 0.00 | 48 | 1015.5 |
| 20260509155320 | 20 | 40 | 4.8 | 11.3 | 0.00 | 0.00 | 0.00 | 47 | 1015.5 |
| 20260509154815 | 20 | 19 | 4.8 | 9.7 | 0.00 | 0.00 | 0.00 | 49 | 1015.5 |
| 20260509154334 | 20 | 40 | 3.2 | 9.7 | 0.00 | 0.00 | 0.00 | 47 | 1015.4 |
| 20260509153820 | 20 | 5 | 6.4 | 9.7 | 0.00 | 0.00 | 0.00 | 48 | 1015.4 |
| 20260509153322 | 21 | 114 | 1.6 | 4.8 | 0.00 | 0.00 | 0.00 | 46 | 1015.4 |
| 20260509152815 | 21 | 35 | 1.6 | 4.8 | 0.00 | 0.00 | 0.00 | 46 | 1015.4 |
| 20260509152330 | 21 | 147 | 0.0 | 3.2 | 0.00 | 0.00 | 0.00 | 47 | 1015.6 |
| 20260509151823 | 21 | 141 | 1.6 | 4.8 | 0.00 | 0.00 | 0.00 | 48 | 1015.6 |
| 20260509151326 | 21 | 108 | 3.2 | 4.8 | 0.00 | 0.00 | 0.00 | 43 | 1015.6 |
| 20260509150900 | 22 | 129 | 1.6 | 4.8 | 0.00 | 0.00 | 0.00 | 43 | 1015.7 |
| 20260509150333 | 22 | 67 | 0.0 | 3.2 | 0.00 | 0.00 | 0.00 | 44 | 1015.7 |
| 20260509145824 | 21 | 131 | 1.6 | 3.2 | 0.00 | 0.00 | 0.00 | 45 | 1015.7 |
| 20260509145328 | 21 | 165 | 0.0 | 3.2 | 0.00 | 0.00 | 0.00 | 44 | 1015.6 |
| 20260509144831 | 21 | 358 | 0.0 | 1.6 | 0.00 | 0.00 | 0.00 | 44 | 1015.8 |
| 20260509144325 | 21 | 305 | 0.0 | 6.4 | 0.00 | 0.00 | 0.00 | 42 | 1015.8 |
| 20260509143817 | 22 | 335 | 3.2 | 6.4 | 0.00 | 0.00 | 0.00 | 42 | 1015.8 |
| 20260509143332 | 22 | 170 | 1.6 | 6.4 | 0.00 | 0.00 | 0.00 | 40 | 1015.9 |
| 20260509142832 | 23 | 71 | 1.6 | 6.4 | 0.00 | 0.00 | 0.00 | 42 | 1016.0 |
| 20260509142321 | 23 | 6 | 1.6 | 4.8 | 0.00 | 0.00 | 0.00 | 43 | 1015.9 |
| 20260509141822 | 22 | 94 | 1.6 | 4.8 | 0.00 | 0.00 | 0.00 | 44 | 1016.0 |
| 20260509141318 | 22 | 27 | 1.6 | 4.8 | 0.00 | 0.00 | 0.00 | 44 | 1016.0 |
| 20260509140830 | 21 | 328 | 1.6 | 4.8 | 0.00 | 0.00 | 0.00 | 44 | 1016.0 |
| 20260509140324 | 21 | 312 | 1.6 | 9.7 | 0.00 | 0.00 | 0.00 | 44 | 1016.1 |
| 20260509135837 | 21 | 22 | 3.2 | 11.3 | 0.00 | 0.00 | 0.00 | 44 | 1016.1 |
| 20260509135331 | 21 | 295 | 3.2 | 11.3 | 0.00 | 0.00 | 0.00 | 45 | 1016.1 |
| 20260509134822 | 21 | 13 | 4.8 | 11.3 | 0.00 | 0.00 | 0.00 | 47 | 1016.1 |
| 20260509134325 | 21 | 356 | 4.8 | 8.0 | 0.00 | 0.00 | 0.00 | 45 | 1016.2 |
| 20260509133833 | 21 | 11 | 3.2 | 6.4 | 0.00 | 0.00 | 0.00 | 46 | 1016.2 |
| 20260509133334 | 21 | 61 | 0.0 | 4.8 | 0.00 | 0.00 | 0.00 | 46 | 1016.3 |
| 20260509132826 | 21 | 61 | 1.6 | 6.4 | 0.00 | 0.00 | 0.00 | 44 | 1016.3 |
| 20260509132341 | 21 | 150 | 1.6 | 12.9 | 0.00 | 0.00 | 0.00 | 45 | 1016.4 |
| 20260509131843 | 22 | 111 | 4.8 | 12.9 | 0.00 | 0.00 | 0.00 | 43 | 1016.4 |
| 20260509131336 | 22 | 33 | 3.2 | 11.3 | 0.00 | 0.00 | 0.00 | 45 | 1016.5 |
| 20260509130829 | 22 | 354 | 1.6 | 6.4 | 0.00 | 0.00 | 0.00 | 44 | 1016.6 |
| 20260509130321 | 22 | 200 | 0.0 | 4.8 | 0.00 | 0.00 | 0.00 | 44 | 1016.7 |
| 20260509125833 | 22 | 27 | 1.6 | 6.4 | 0.00 | 0.00 | 0.00 | 44 | 1016.8 |
| 20260509125320 | 22 | 103 | 3.2 | 6.4 | 0.00 | 0.00 | 0.00 | 47 | 1016.8 |
| 20260509124821 | 21 | 150 | 3.2 | 6.4 | 0.00 | 0.00 | 0.00 | 47 | 1016.8 |
| 20260509124329 | 21 | 142 | 1.6 | 6.4 | 0.00 | 0.00 | 0.00 | 47 | 1016.9 |
| 20260509123825 | 22 | 47 | 1.6 | 11.3 | 0.00 | 0.00 | 0.00 | 46 | 1016.9 |
| 20260509123320 | 21 | 316 | 3.2 | 11.3 | 0.00 | 0.00 | 0.00 | 45 | 1017.0 |
| 20260509122823 | 21 | 53 | 6.4 | 11.3 | 0.00 | 0.00 | 0.00 | 46 | 1017.0 |
| 20260509122328 | 22 | 360 | 4.8 | 8.0 | 0.00 | 0.00 | 0.00 | 45 | 1017.0 |
| 20260509121829 | 22 | 115 | 1.6 | 11.3 | 0.00 | 0.00 | 0.00 | 45 | 1017.1 |
| 20260509121323 | 22 | 294 | 4.8 | 12.9 | 0.00 | 0.00 | 0.00 | 45 | 1017.2 |
| 20260509120839 | 22 | 1 | 4.8 | 9.7 | 0.00 | 0.00 | 0.00 | 45 | 1017.2 |
| 20260509120340 | 22 | 5 | 3.2 | 6.4 | 0.00 | 0.00 | 0.00 | 45 | 1017.2 |
| 20260509115825 | 22 | 207 | 3.2 | 4.8 | 0.00 | 0.00 | 0.00 | 44 | 1017.3 |
| 20260509115321 | 22 | 201 | 1.6 | 8.0 | 0.00 | 0.00 | 0.00 | 46 | 1017.4 |
| 20260509114836 | 22 | 115 | 0.0 | 8.0 | 0.00 | 0.00 | 0.00 | 46 | 1017.4 |
| 20260509114335 | 21 | 309 | 1.6 | 4.8 | 0.00 | 0.00 | 0.00 | 47 | 1017.4 |
| 20260509113829 | 21 | 11 | 1.6 | 8.0 | 0.00 | 0.00 | 0.00 | 47 | 1017.5 |